Погода в Зимовники

Погода в Зимовники : погода сейчас, прогноз погоды и архив. Всё, что Вы хотите узнать о погоде в Зимовники!

Поиск расширенной информации на нашем сайте:

Другие новости

Новости СМИ2

Главная страница сайта

Новости сайта

02.10.2013

Напоминаем, что на нашем новом сайте вы можете получить высокодетализированные прогнозы погоды по пунктам России, СНГ и мира (включающие важные для авиации метеовеличины, такие как направление и скорость ветра, видимость, явления погоды, количество и форма облачности, нижняя и верхняя граница облачности), а также ознакомиться с разнообразными материалами по авиационной метеорологии и подборкой полезных ссылок на эту тему.

Сайт Метеоцентр.Азия посвящён разработке технологий оптимизации авиаметеорологического обслуживания, включая проектирование и перспективное создание нескольких автоматизированных авиаметеорологических систем:
- система выпуска высокодетальных прогностических карт явлений погоды для нижнего воздушного пространства по России и ближнему зарубежью;
- система верификации прогнозов TAF (выпускаемых синоптиками официальных АМСГ РФ и ближнего зарубежья) и AUTOTAF (выпускаемых сайтом Метеоцентр.Азия) - выявление ошибок, онлайн-сопоставление с фактической погодой METAR, автоматическое внесение коррективов в прогнозы при резком отклонении фактической погоды от прогноза, подсчёт оправдываемости прогнозов по элементам и в целом;
- система обработки, анализа и отображения авиаметеорологической информации для применения провайдерами метеорологической информации.


Погода в Зимовники - сегодня

Время (UTC), дата Ветер
(°,м/с) 
Видим.   Явления Облачность Т
(°С)
Тd
(°С)
f(%) Тe
(°С)
Pmin
(гПа)
dP
(гПа)
Po
(мм)
O2
(г/м3)
Тmin Tmax R s Состояние
почвы
09 18.01.17 040 (СВ) 4000 м  дымка{снег}  10/10 300 м 
[Sc]
-2.4 -3.5 92 -4  1032.3  0.5  767  312           
12 18.01.17 050 (СВ) 4000 м  слаб. снег  10/10 300 м 
[Frnb|Ns]
-3.1 -4.5 90 -5  1032.6  0.3  767  313           
15 18.01.17 050 (СВ) 2000 м  слаб. снег  10/10 300 м 
[Frnb|Ns]
-3.5 -4.3 94 -6  1033.3  0.7  768  314    -0.9     
18 18.01.17 050 (СВ) 2000 м  слаб. снег  10/10 300 м 
[Frnb|Ns]
-3.9 -4.8 93 -6  1033.9  0.5  768  315           
21 18.01.17 050 (СВ) 4000 м  дымка{снег}  10/10 300 м 
[Sc]
-4.5 -5.5 93 -6  1033.8  -0.1  768  315           
00 19.01.17 030 (СВ) 4000 м  дымка{снег}  10/10 300 м 
[Sc]
-5.4 -6.7 91 -7  1034  0.2  768  317           
03 19.01.17 040 (СВ) 4000 м  дымка  10/10 300 м 
[Sc]
-7 -8.4 90 -10  1034.9  0.8  769  319  -7    0.7  равномерный
сухой снег
100% 
06 19.01.17 040 (СВ) 10 км    10/10 300 м 
[Sc]
-8.9 -10.4 89 -11  1036.2  1.1  770  322  -9         
09 19.01.17 060 (СВ) 10 км    10/10 300 м 
[Sc]
-7.1 -9.4 84 -9  1036.2  0.2  770  320           
12 19.01.17 040 (СВ) 10 км    10/10 300 м 
[Sc]
-6.4 -8.3 86 -8  1035.2  -0.9  769  318           
15 19.01.17 040 (СВ) 10 км    10/10 300 м 
[Sc]
-7.3 -9.4 85 -7  1035.2  -0.1  769  319    -5.9       
18 19.01.17 360 (С) 4000 м  дымка  10/10 300 м 
[Sc]
-8.1 -9.6 89 -8  1035.2  769  320           
21 19.01.17 тихо ()   4000 м  дымка  10/10 300 м 
[Sc]
-8.8 -10.1 90 -9  1034.8  -0.6  769  321           
00 20.01.17 270 (З) 4000 м  дымка  10/10 300 м 
[Sc]
-9.1 -9.8 95 -9  1032.9  -1.8  767  321           
03 20.01.17 260 (З) 4000 м  дымка  10/10 300 м 
[Sc]
-9.2 -10.3 92 -11  1032.5  -0.4  767  321  -9.6      равномерный
сухой снег
100% 
06 20.01.17 240 (ЮЗ) 4000 м  дымка  10/10 300 м 
[Sc]
-9.1 -10.2 92 -11  1031.9  -0.6  767  321  -9.7         
09 20.01.17 250 (З) 4000 м  дымка  10/10 300 м 
[Sc]
-7.8 -9.2 90 -11  1030.3  -1.4  766  319           
12 20.01.17 250 (З) 10 км    10/5 600 м кучево-дожд., средняя 
[Cb cap|Ac As]
-6.8 -8.4 88 -10  1027.6  -2.7  764  316           
15 20.01.17 240 (ЮЗ) 10 км    10/6 600 м кучево-дожд., средняя 
[Cb cap|Ac und]
-7.5 -9.2 88 -11  1026.3  -1.3  763  317    -6.8       
18 20.01.17 240 (ЮЗ) 4{10}  10 км    10/10 300 м 
[Sc]
-7 -8.7 88 -11  1024.8  -1.5  762  316           
21 20.01.17 250 (З) 4000 м  дымка{ливн. осадки}  10/10 300 м 
[Sc]
-6 -7.5 89 -9  1023.9  -0.8  761  314           
00 21.01.17 260 (З) 4000 м  слаб. снег{ливн. осадки}  10/10 300 м 
[Frnb|Ns]
-5.1 -6.1 93 -7  1022.8  -1.1  760  313           
03 21.01.17 260 (З) 2000 м  слаб. снег  10/10 300 м 
[Frnb|Ns]
-4.8 -5.4 96 -8  1022.4  -0.4  760  312  -7.5    0.7  равномерный
сухой снег
100% 
06 21.01.17 270 (З) 2000 м  слаб. переохл. дождь (гололёд){снег} [диам. гололёда 1 мм]  10/10 300 м 
[Frnb|Ns]
-4.7 -5.3 96 -7  1022.4  760  312           
09 21.01.17 250 (З) 2000 м  дымка{дождь} [диам. гололёда 2 мм]  10/10 300 м 
[St]
-3.3 -4.1 94 -6  1021.4  -0.9  759  310           
Время (UTC), дата Ветер
(°,м/с) 
Видим.   Явления Облачность Т
(°С)
Тd
(°С)
f(%) Тe
(°С)
Pmin
(гПа)
dP
(гПа)
Po
(мм)
O2
(г/м3)
Тmin Tmax R s Состояние
почвы

Для получения пояснительной информации подведите курсор к названию столбца.

ПОГОДА в Зимовники - архив

Всё, что Вы хотите узнать о погоде в Зимовники - удобно и подробно!

Выберите нужную дату (начиная с 1 января 2015* года) и нажмите кнопку "Найти".
Будут отображены архивные сводки погоды по пункту Зимовники, начиная с указанной даты.


Отображать данные в формате CSV (для использования в таблицах Excel)


Внимание! Наш архив погоды предназначен исключительно для личного некоммерческого использования в познавательных целях. Если Вам необходимы официальные справки о состоянии погоды (для производственных, юридических, коммерческих и т.п. целей), обращайтесь в органы Росгидромета.

*Примечание: данная дата относится к архиву по метеостанциям СССР (Россия, СНГ, Балтия).
Архив по метеостанциям Зарубежной Европы и Азии (кроме Китая) хранится 10 дней, по другим регионам земного шара (Китай, Африка, Америка, Австралия, Океания) - 1 день.

Зимовники - район местоположения метеостанции


Название, широта, долгота, высота метеостанции:
Зимовники 47.2°ш. 42.5°д. 72 м над ур. моря [Российская Федерация]

Дополнительная информация

В oтличие oт бoльшинства пoгoдных сайтoв мы публикуем пoдрoбную метеoинфoрмацию в детальнoм прoфессиoнальнoм фoрмате.

Характеристики температуры и влажнoсти вoздуха измеряются на высoте 2 м в тени вдали oт зданий и деревьев.
Скoрoсть ветра измеряется на высoте 10 м (на урoвне рoста челoвека скoрoсть ветра ниже в 1.5-2 раза). Если метеoстанция нахoдится в гoрoде или в лесу, тo скoрoсть ветра занижена на 2-4 м/с пo сравнению с oткрытым местoм. Скoрoсть ветра над акватoриями крупных рек и oзёр, а также на вершинах хoлмoв на 2-5 м/с выше, чем в oбычных услoвиях.
Атмoсфернoе давление в разных тoчках местнoсти мoжет значительнo oтличаться oт давления на метеoстанции, в зависимoсти oт услoвий рельефа (при пoдъёме на 10 м давление пoнижается примернo на 1 мм рт.ст.).